Regional Weather Roundup
Issued by NWS

Home | Current Version | Previous Version | Text Only | Print | Product List | Glossary On
Versions: 1 2 3 4 5 6 7 8 9 10 11 12 13 14 15 16 17 18 19 20 21 22 23 24 25 26 27 28 29 30 31 32 33 34 35 36 37 38 39 40 41 42 43 44 45 46 47 48 49 50
000
ASUS45 KREV 161910
RWRNV
NEVADA REGIONAL WEATHER ROUNDUP
NATIONAL WEATHER SERVICE RENO NV
1100 AM PST MON JAN 16 2017

NOTE: "FAIR" INDICATES FEW OR NO CLOUDS BELOW 12,000 FEET WITH NO
SIGNIFICANT WEATHER AND/OR OBSTRUCTIONS TO VISIBILITY.

NVZ001-003-004-162000-
WESTERN NEVADA

CITY           SKY/WX    TMP DP  RH WIND       PRES   REMARKS
RENO           MOSUNNY   29  22  75 S5        30.33F
CARSON CITY    CLOUDY    27  19  74 S3        30.34F
MINDEN         CLOUDY    25  19  80 SW3       30.34F
PYRAMID LAKE     N/A     32 N/A N/A S3          N/A
FALLON         NOT AVBL
LOVELOCK       CLOUDY    31  21  66 E5        30.36F
HAWTHORNE        N/A     32  23  69 CALM      30.35F
$$

NVZ002-CAZ072-073-162000-
NORTHERN AND CENTRAL SIERRA

CITY           SKY/WX    TMP DP  RH WIND       PRES   REMARKS
S. LAKE TAHOE  SUNNY     34  21  59 NE3       30.20F
TRUCKEE        CLOUDY    19  18  93 CALM      30.26
SQUAW VLY 8000   N/A     25  25 100 NE5         N/A
SUSANVILLE     CLOUDY    32  25  74 NE5       30.35S
MAMMOTH LAKES  FAIR      34  10  36 CALM      30.23F
BRIDGEPORT       N/A      9   4  80 CALM      30.23F
$$

NVZ030-031-036-162000-
NORTHERN NEVADA

CITY           SKY/WX    TMP DP  RH WIND       PRES   REMARKS
ELKO           CLOUDY    23  17  78 CALM      30.31F
WINNEMUCCA     CLOUDY    27  21  78 SE5       30.36R
WENDOVER       MOSUNNY   25  18  74 CALM      30.32F
$$

NVZ035-037-162000-
CENTRAL NEVADA

CITY           SKY/WX    TMP DP  RH WIND       PRES   REMARKS
ELY            CLOUDY    18  16  92 N7        30.24F
EUREKA           N/A     22  16  78 SE3       30.28F
$$

NVZ013-014-162000-
SOUTH CENTRAL NEVADA

CITY           SKY/WX    TMP DP  RH WIND       PRES   REMARKS
TONOPAH        SUNNY     31  16  54 NW20      30.22F
$$

NVZ017-020-022-162000-
SOUTHERN NEVADA

CITY           SKY/WX    TMP DP  RH WIND       PRES   REMARKS
LAS VEGAS      MOSUNNY   50  20  30 NE13G20   30.15F
N. LAS VEGAS   SUNNY     52  17  25 N20       30.15F
NELLIS AFB     SUNNY     51  22  31 N15       30.16F
HENDERSON      SUNNY     49  22  34 NE12      30.17F
MERCURY        NOT AVBL
$$



USA.gov is the U.S. government's official web portal to all federal, state and local government web resources and services.